JDI69 ESSA-ENBR

Flight info

Callsign JDI69
Flight time 1h 12m
Altitude 40000
Route ARS N623 IBGAX DCT EBURI N623 ESEBA DCT ATLAP DCT PESUR
Aircraft A346/H-SDE2E3FGHIJ3J4J5M1RWXY/LB1D1

Departure

Time 2026-05-06 18:31
Airport Stockholm-Arlanda Airport (ESSA)

Arrival

Time 2026-05-06 19:43
Airport Bergen Airport, Flesland (ENBR)
Time Latitude Longitude Altitude Speed Heading
2026-05-06 17:42 59.63857 17.93156 146 ft 0 kts 207°
2026-05-06 18:17 59.63865 17.93162 146 ft 0 kts 204°
2026-05-06 18:17 59.63888 17.93182 146 ft 0 kts 204°
2026-05-06 18:17 59.63913 17.93203 146 ft 0 kts 204°
2026-05-06 18:17 59.63927 17.93228 146 ft 0 kts 241°
2026-05-06 18:18 59.63929 17.93261 146 ft 0 kts 280°
2026-05-06 18:18 59.63927 17.93277 146 ft 0 kts 291°
2026-05-06 18:22 59.63928 17.93260 146 ft 5 kts 276°
2026-05-06 18:22 59.63932 17.93211 146 ft 1 kts 278°
2026-05-06 18:22 59.63935 17.93183 146 ft 4 kts 285°
2026-05-06 18:22 59.63948 17.93117 146 ft 6 kts 297°
2026-05-06 18:23 59.63987 17.93046 146 ft 9 kts 343°
2026-05-06 18:23 59.64055 17.93014 146 ft 9 kts 327°
2026-05-06 18:23 59.64102 17.92883 146 ft 13 kts 297°
2026-05-06 18:23 59.64151 17.92694 146 ft 17 kts 296°
2026-05-06 18:24 59.64204 17.92481 146 ft 18 kts 296°
2026-05-06 18:24 59.64258 17.92268 146 ft 17 kts 296°
2026-05-06 18:24 59.64310 17.92060 146 ft 15 kts 296°
2026-05-06 18:24 59.64373 17.91923 146 ft 14 kts 349°
2026-05-06 18:25 59.64482 17.91961 146 ft 18 kts
2026-05-06 18:25 59.64617 17.92006 146 ft 21 kts
2026-05-06 18:25 59.64772 17.92064 146 ft 24 kts 11°
2026-05-06 18:25 59.64943 17.92129 146 ft 26 kts 10°
2026-05-06 18:26 59.65131 17.92192 147 ft 28 kts 10°
2026-05-06 18:26 59.65330 17.92265 146 ft 26 kts 11°
2026-05-06 18:26 59.65510 17.92331 146 ft 24 kts 10°
2026-05-06 18:26 59.65682 17.92393 146 ft 26 kts 10°
2026-05-06 18:27 59.65870 17.92460 146 ft 28 kts 10°
2026-05-06 18:27 59.66071 17.92533 146 ft 30 kts 10°
2026-05-06 18:27 59.66224 17.92588 146 ft 0 kts 10°
2026-05-06 18:28 59.66225 17.92589 146 ft 1 kts 10°
2026-05-06 18:28 59.66252 17.92598 146 ft 6 kts 10°
2026-05-06 18:28 59.66306 17.92618 146 ft 10 kts 10°
2026-05-06 18:29 59.66374 17.92643 146 ft 6 kts 10°
2026-05-06 18:29 59.66431 17.92657 146 ft 10 kts
2026-05-06 18:29 59.66517 17.92628 146 ft 12 kts 342°
2026-05-06 18:29 59.66589 17.92554 147 ft 7 kts 316°
2026-05-06 18:30 59.66618 17.92456 149 ft 10 kts 277°
2026-05-06 18:30 59.66572 17.92356 150 ft 13 kts 198°
2026-05-06 18:30 59.66475 17.92323 151 ft 20 kts 190°
2026-05-06 18:30 59.66116 17.92192 155 ft 86 kts 191°
2026-05-06 18:31 59.65316 17.91900 152 ft 145 kts 189°
2026-05-06 18:31 59.64217 17.91448 471 ft 167 kts 189°
2026-05-06 18:31 59.63075 17.90994 1218 ft 167 kts 189°
2026-05-06 18:31 59.61939 17.90604 2031 ft 165 kts 194°
2026-05-06 18:32 59.60924 17.89502 2654 ft 174 kts 225°
2026-05-06 18:32 59.60273 17.87375 3172 ft 187 kts 240°
2026-05-06 18:32 59.59656 17.85020 3724 ft 198 kts 240°
2026-05-06 18:32 59.58983 17.82551 4272 ft 210 kts 240°
2026-05-06 18:33 59.58234 17.79969 4812 ft 221 kts 239°
2026-05-06 18:33 59.57439 17.77296 5310 ft 239 kts 240°
2026-05-06 18:33 59.56722 17.74170 5688 ft 261 kts 256°
2026-05-06 18:33 59.56560 17.70505 6315 ft 271 kts 274°
2026-05-06 18:34 59.56726 17.66848 7456 ft 265 kts 275°
2026-05-06 18:34 59.56868 17.63235 8597 ft 262 kts 274°
2026-05-06 18:34 59.56977 17.59618 9635 ft 265 kts 273°
2026-05-06 18:34 59.57072 17.55960 10555 ft 269 kts 272°
2026-05-06 18:35 59.57161 17.52157 11156 ft 286 kts 272°
2026-05-06 18:35 59.57250 17.48109 11680 ft 304 kts 272°
2026-05-06 18:35 59.57601 17.43882 12259 ft 321 kts 289°
2026-05-06 18:35 59.58564 17.39868 13234 ft 325 kts 296°
2026-05-06 18:36 59.59667 17.35944 14180 ft 329 kts 297°
2026-05-06 18:36 59.60801 17.32064 15040 ft 333 kts 297°
2026-05-06 18:36 59.61989 17.28099 15948 ft 335 kts 297°
2026-05-06 18:36 59.63192 17.24123 16864 ft 338 kts 297°
2026-05-06 18:37 59.64235 17.19963 17779 ft 338 kts 289°
2026-05-06 18:37 59.65108 17.15635 18644 ft 340 kts 287°
2026-05-06 18:37 59.65969 17.11253 19432 ft 342 kts 287°
2026-05-06 18:37 59.66842 17.06857 20212 ft 345 kts 287°
2026-05-06 18:38 59.67739 17.02417 20993 ft 348 kts 287°
2026-05-06 18:38 59.68629 16.97959 21756 ft 349 kts 283°
2026-05-06 18:38 59.69108 16.93252 22454 ft 348 kts 273°
2026-05-06 18:38 59.69347 16.88475 23236 ft 350 kts 271°
2026-05-06 18:39 59.69568 16.83652 23932 ft 353 kts 271°
2026-05-06 18:39 59.69804 16.78790 24574 ft 355 kts 271°
2026-05-06 18:39 59.70052 16.73900 25204 ft 358 kts 271°
2026-05-06 18:40 59.70577 16.63990 26471 ft 363 kts 271°
2026-05-06 18:40 59.70842 16.59061 27094 ft 366 kts 270°
2026-05-06 18:40 59.71119 16.53966 27780 ft 368 kts 270°
2026-05-06 18:40 59.71393 16.48909 28397 ft 370 kts 270°
2026-05-06 18:41 59.71660 16.43891 28977 ft 373 kts 270°
2026-05-06 18:41 59.71934 16.38745 29542 ft 376 kts 269°
2026-05-06 18:41 59.72209 16.33574 30135 ft 378 kts 269°
2026-05-06 18:41 59.72483 16.28375 30639 ft 380 kts 269°
2026-05-06 18:42 59.72756 16.23114 31076 ft 384 kts 269°
2026-05-06 18:42 59.73030 16.17822 31493 ft 388 kts 270°
2026-05-06 18:42 59.73306 16.12463 31925 ft 392 kts 270°
2026-05-06 18:42 59.73583 16.07059 32352 ft 395 kts 270°
2026-05-06 18:43 59.73860 16.01608 32773 ft 399 kts 270°
2026-05-06 18:43 59.74138 15.96104 33183 ft 402 kts 270°
2026-05-06 18:43 59.74417 15.90575 33754 ft 402 kts 270°
2026-05-06 18:43 59.74695 15.85054 34217 ft 403 kts 270°
2026-05-06 18:44 59.74967 15.79494 34567 ft 405 kts 270°
2026-05-06 18:44 59.75238 15.73898 34932 ft 408 kts 270°
2026-05-06 18:44 59.75504 15.68365 35311 ft 409 kts 270°
2026-05-06 18:44 59.75774 15.62733 35688 ft 410 kts 271°
2026-05-06 18:45 59.76042 15.57085 36060 ft 411 kts 271°
2026-05-06 18:45 59.76309 15.51409 36407 ft 413 kts 271°
2026-05-06 18:45 59.76575 15.45717 36742 ft 414 kts 271°
2026-05-06 18:45 59.76750 15.41938 36966 ft 415 kts 271°
2026-05-06 18:46 59.77102 15.34279 37410 ft 417 kts 271°
2026-05-06 18:46 59.77363 15.28536 37727 ft 418 kts 272°
2026-05-06 18:46 59.77623 15.22768 38022 ft 420 kts 272°
2026-05-06 18:46 59.77879 15.17045 38170 ft 424 kts 271°
2026-05-06 18:47 59.78137 15.11181 38330 ft 428 kts 272°
2026-05-06 18:47 59.78394 15.05269 38559 ft 430 kts 272°
2026-05-06 18:47 59.78650 14.99332 38759 ft 432 kts 272°
2026-05-06 18:47 59.78904 14.93373 38942 ft 433 kts 272°
2026-05-06 18:48 59.79156 14.87388 39127 ft 435 kts 272°
2026-05-06 18:48 59.79405 14.81381 39313 ft 436 kts 272°
2026-05-06 18:48 59.79652 14.75360 39491 ft 437 kts 272°
2026-05-06 18:48 59.79938 14.69328 39658 ft 439 kts 274°
2026-05-06 18:49 59.80349 14.63376 39836 ft 442 kts 276°
2026-05-06 18:49 59.80906 14.57348 39964 ft 445 kts 278°
2026-05-06 18:49 59.81514 14.51301 39959 ft 446 kts 278°
2026-05-06 18:50 59.82747 14.39160 39963 ft 447 kts 278°
2026-05-06 18:50 59.83968 14.27037 39960 ft 447 kts 278°
2026-05-06 18:51 59.85169 14.14964 39958 ft 447 kts 278°
2026-05-06 18:51 59.86366 14.02810 39948 ft 447 kts 278°
2026-05-06 18:52 59.87550 13.90657 39950 ft 447 kts 278°
2026-05-06 18:52 59.88725 13.78473 39935 ft 447 kts 277°
2026-05-06 18:53 59.89888 13.66287 39928 ft 447 kts 277°
2026-05-06 18:53 59.91038 13.54120 39926 ft 447 kts 277°
2026-05-06 18:54 59.92169 13.42017 39928 ft 447 kts 277°
2026-05-06 18:54 59.93296 13.29830 39949 ft 447 kts 277°
2026-05-06 18:55 59.94415 13.17592 39934 ft 447 kts 277°
2026-05-06 18:55 59.95523 13.05358 39932 ft 447 kts 277°
2026-05-06 18:56 59.96617 12.93131 39929 ft 447 kts 277°
2026-05-06 18:56 59.97697 12.80900 39933 ft 447 kts 277°
2026-05-06 18:57 59.98769 12.68641 39936 ft 447 kts 277°
2026-05-06 18:57 59.99827 12.56373 39937 ft 447 kts 276°
2026-05-06 18:58 60.00859 12.44215 39942 ft 447 kts 276°
2026-05-06 18:58 60.01736 12.31903 39947 ft 446 kts 274°
2026-05-06 18:59 60.02483 12.19572 39941 ft 446 kts 274°
2026-05-06 18:59 60.03216 12.07232 39944 ft 446 kts 274°
2026-05-06 19:00 60.03937 11.94864 39947 ft 447 kts 274°
2026-05-06 19:00 60.04650 11.82492 39943 ft 447 kts 274°
2026-05-06 19:01 60.05351 11.70118 39941 ft 447 kts 274°
2026-05-06 19:01 60.06040 11.57741 39937 ft 447 kts 274°
2026-05-06 19:02 60.06718 11.45342 39933 ft 447 kts 274°
2026-05-06 19:02 60.07379 11.33026 39948 ft 447 kts 274°
2026-05-06 19:03 60.08035 11.20578 39932 ft 448 kts 274°
2026-05-06 19:03 60.08679 11.08153 39928 ft 448 kts 273°
2026-05-06 19:04 60.09311 10.95727 39926 ft 447 kts 273°
2026-05-06 19:04 60.09931 10.83293 39928 ft 447 kts 273°
2026-05-06 19:05 60.10540 10.70872 39930 ft 447 kts 273°
2026-05-06 19:05 60.11129 10.58505 39943 ft 447 kts 273°
2026-05-06 19:06 60.11715 10.46082 39931 ft 447 kts 273°
2026-05-06 19:06 60.12289 10.33645 39936 ft 447 kts 273°
2026-05-06 19:07 60.12850 10.21216 39939 ft 447 kts 273°
2026-05-06 19:07 60.13399 10.08762 39939 ft 447 kts 273°
2026-05-06 19:08 60.13931 9.96398 39950 ft 447 kts 273°
2026-05-06 19:08 60.14454 9.83972 39956 ft 446 kts 273°
2026-05-06 19:08 60.14714 9.77735 39765 ft 447 kts 273°
2026-05-06 19:09 60.14976 9.71534 39517 ft 444 kts 273°
2026-05-06 19:09 60.15235 9.65376 39194 ft 441 kts 273°
2026-05-06 19:09 60.15490 9.59242 38777 ft 439 kts 273°
2026-05-06 19:09 60.15740 9.53125 38219 ft 439 kts 272°
2026-05-06 19:10 60.15987 9.47014 37676 ft 437 kts 272°
2026-05-06 19:10 60.16227 9.40997 37171 ft 435 kts 272°
2026-05-06 19:10 60.16465 9.34950 36706 ft 433 kts 272°
2026-05-06 19:10 60.16698 9.28911 36124 ft 433 kts 272°
2026-05-06 19:11 60.16929 9.22876 35583 ft 432 kts 272°
2026-05-06 19:11 60.17157 9.16866 35040 ft 431 kts 272°
2026-05-06 19:11 60.17382 9.10862 34500 ft 430 kts 271°
2026-05-06 19:11 60.17603 9.04865 33969 ft 429 kts 271°
2026-05-06 19:12 60.17822 8.98875 33320 ft 428 kts 271°
2026-05-06 19:12 60.18038 8.92912 32722 ft 426 kts 271°
2026-05-06 19:12 60.18249 8.86988 32144 ft 423 kts 271°
2026-05-06 19:12 60.18456 8.81108 31590 ft 419 kts 270°
2026-05-06 19:13 60.18658 8.75319 31192 ft 411 kts 270°
2026-05-06 19:13 60.18851 8.69704 30821 ft 404 kts 270°
2026-05-06 19:13 60.19037 8.64120 30478 ft 396 kts 270°
2026-05-06 19:13 60.19219 8.58649 30149 ft 388 kts 270°
2026-05-06 19:14 60.19396 8.53287 29788 ft 380 kts 270°
2026-05-06 19:14 60.19567 8.48034 29426 ft 372 kts 270°
2026-05-06 19:14 60.19732 8.42893 29133 ft 363 kts 270°
2026-05-06 19:14 60.19890 8.37880 28819 ft 357 kts 270°
2026-05-06 19:15 60.20045 8.32901 28498 ft 355 kts 270°
2026-05-06 19:15 60.20199 8.27948 28141 ft 353 kts 270°
2026-05-06 19:15 60.20349 8.23036 27886 ft 351 kts 270°
2026-05-06 19:15 60.20493 8.18213 27641 ft 349 kts 270°
2026-05-06 19:16 60.20638 8.13329 27402 ft 348 kts 270°
2026-05-06 19:16 60.20780 8.08473 27077 ft 347 kts 270°
2026-05-06 19:16 60.20920 8.03644 26729 ft 345 kts 270°
2026-05-06 19:16 60.21055 7.98842 26371 ft 343 kts 270°
2026-05-06 19:17 60.21190 7.94065 25987 ft 340 kts 270°
2026-05-06 19:17 60.21324 7.89326 25606 ft 337 kts 271°
2026-05-06 19:17 60.21454 7.84627 25250 ft 335 kts 271°
2026-05-06 19:17 60.21583 7.79946 24873 ft 333 kts 271°
2026-05-06 19:18 60.21708 7.75316 24519 ft 330 kts 271°
2026-05-06 19:18 60.21829 7.70773 24161 ft 328 kts 271°
2026-05-06 19:18 60.21950 7.66197 23798 ft 326 kts 271°
2026-05-06 19:18 60.22068 7.61659 23403 ft 324 kts 271°
2026-05-06 19:19 60.22184 7.57155 22996 ft 320 kts 271°
2026-05-06 19:19 60.22298 7.52687 22614 ft 317 kts 271°
2026-05-06 19:19 60.22409 7.48268 22241 ft 314 kts 271°
2026-05-06 19:19 60.22517 7.43891 21871 ft 311 kts 271°
2026-05-06 19:20 60.22587 7.41017 21620 ft 310 kts 271°
2026-05-06 19:20 60.22692 7.36690 21261 ft 307 kts 271°
2026-05-06 19:20 60.22792 7.32408 20906 ft 305 kts 271°
2026-05-06 19:20 60.22892 7.28153 20547 ft 303 kts 271°
2026-05-06 19:21 60.22990 7.23915 20189 ft 301 kts 271°
2026-05-06 19:21 60.23086 7.19716 19823 ft 299 kts 271°
2026-05-06 19:21 60.23180 7.15539 19473 ft 297 kts 271°
2026-05-06 19:21 60.23273 7.11382 19121 ft 296 kts 272°
2026-05-06 19:22 60.23363 7.07248 18764 ft 295 kts 272°
2026-05-06 19:22 60.23451 7.03134 18411 ft 294 kts 272°
2026-05-06 19:22 60.23538 6.99053 18021 ft 293 kts 272°
2026-05-06 19:22 60.23623 6.94956 17653 ft 291 kts 272°
2026-05-06 19:23 60.23707 6.90898 17308 ft 290 kts 272°
2026-05-06 19:23 60.23789 6.86841 16928 ft 289 kts 272°
2026-05-06 19:23 60.23870 6.82808 16581 ft 288 kts 272°
2026-05-06 19:23 60.23949 6.78752 16228 ft 291 kts 272°
2026-05-06 19:24 60.24026 6.74692 15864 ft 290 kts 272°
2026-05-06 19:24 60.24103 6.70643 15522 ft 289 kts 272°
2026-05-06 19:24 60.24177 6.66651 15178 ft 289 kts 272°
2026-05-06 19:24 60.24276 6.62588 14794 ft 291 kts 276°
2026-05-06 19:25 60.24645 6.58519 14435 ft 291 kts 284°
2026-05-06 19:25 60.25306 6.54692 14079 ft 292 kts 292°
2026-05-06 19:25 60.26176 6.50975 13711 ft 294 kts 295°
2026-05-06 19:25 60.27078 6.47292 13290 ft 292 kts 295°
2026-05-06 19:26 60.27980 6.43624 12937 ft 291 kts 295°
2026-05-06 19:26 60.28877 6.39965 12597 ft 291 kts 295°
2026-05-06 19:26 60.29773 6.36297 12244 ft 290 kts 295°
2026-05-06 19:26 60.30662 6.32646 11900 ft 290 kts 295°
2026-05-06 19:27 60.31550 6.28992 11571 ft 290 kts 295°
2026-05-06 19:27 60.32444 6.25308 11210 ft 294 kts 295°
2026-05-06 19:27 60.33343 6.21593 10861 ft 293 kts 295°
2026-05-06 19:27 60.34236 6.17893 10515 ft 292 kts 295°
2026-05-06 19:28 60.35116 6.14245 10181 ft 292 kts 295°
2026-05-06 19:28 60.36001 6.10576 10036 ft 290 kts 295°
2026-05-06 19:28 60.36885 6.06902 10038 ft 291 kts 295°
2026-05-06 19:28 60.37772 6.03205 10036 ft 292 kts 295°
2026-05-06 19:29 60.38655 5.99521 10031 ft 292 kts 295°
2026-05-06 19:29 60.39539 5.95819 10031 ft 292 kts 295°
2026-05-06 19:29 60.40422 5.92123 10035 ft 292 kts 295°
2026-05-06 19:29 60.41305 5.88415 10035 ft 291 kts 295°
2026-05-06 19:30 60.42172 5.84770 9908 ft 283 kts 295°
2026-05-06 19:30 60.43012 5.81236 9712 ft 274 kts 295°
2026-05-06 19:30 60.43826 5.77801 9510 ft 267 kts 295°
2026-05-06 19:30 60.44625 5.74419 9122 ft 265 kts 295°
2026-05-06 19:31 60.45420 5.71050 8740 ft 264 kts 295°
2026-05-06 19:31 60.46205 5.67721 8518 ft 257 kts 295°
2026-05-06 19:31 60.48073 5.61929 8157 ft 246 kts 329°
2026-05-06 19:32 60.49702 5.61076 7972 ft 243 kts 357°
2026-05-06 19:32 60.51367 5.61168 7775 ft 238 kts 359°
2026-05-06 19:32 60.53016 5.61196 7460 ft 236 kts 352°
2026-05-06 19:32 60.54619 5.60586 7146 ft 233 kts 341°
2026-05-06 19:33 60.56146 5.59570 6992 ft 231 kts 338°
2026-05-06 19:33 60.57664 5.58476 6996 ft 232 kts 338°
2026-05-06 19:33 60.59122 5.57095 6990 ft 231 kts 326°
2026-05-06 19:33 60.60421 5.55192 6990 ft 230 kts 320°
2026-05-06 19:34 60.61658 5.53125 6990 ft 229 kts 319°
2026-05-06 19:34 60.62855 5.51040 6989 ft 229 kts 314°
2026-05-06 19:34 60.63879 5.48580 6989 ft 228 kts 303°
2026-05-06 19:34 60.64718 5.45840 6995 ft 227 kts 300°
2026-05-06 19:35 60.65370 5.42933 6985 ft 225 kts 281°
2026-05-06 19:35 60.65583 5.39764 7004 ft 225 kts 274°
2026-05-06 19:35 60.65695 5.36576 6997 ft 225 kts 273°
2026-05-06 19:35 60.65610 5.33411 6983 ft 225 kts 251°
2026-05-06 19:36 60.64789 5.30744 6880 ft 222 kts 229°
2026-05-06 19:36 60.63666 5.28539 6507 ft 226 kts 224°
2026-05-06 19:36 60.62477 5.26427 6169 ft 227 kts 223°
2026-05-06 19:36 60.61277 5.24331 5857 ft 227 kts 223°
2026-05-06 19:37 60.60081 5.22246 5564 ft 226 kts 223°
2026-05-06 19:37 60.58889 5.20168 5256 ft 225 kts 222°
2026-05-06 19:37 60.57543 5.18557 4938 ft 228 kts 200°
2026-05-06 19:37 60.56030 5.17781 4659 ft 227 kts 194°
2026-05-06 19:38 60.54477 5.17168 4370 ft 227 kts 193°
2026-05-06 19:38 60.52927 5.16583 4044 ft 226 kts 192°
2026-05-06 19:38 60.51381 5.15997 3748 ft 225 kts 192°
2026-05-06 19:38 60.49836 5.15496 3469 ft 225 kts 186°
2026-05-06 19:39 60.48290 5.15491 3313 ft 219 kts 177°
2026-05-06 19:39 60.46798 5.15875 3177 ft 212 kts 172°
2026-05-06 19:39 60.45372 5.16383 3039 ft 203 kts 171°
2026-05-06 19:39 60.44030 5.16871 2978 ft 188 kts 172°
2026-05-06 19:40 60.42779 5.17307 2788 ft 179 kts 172°
2026-05-06 19:40 60.41571 5.17713 2536 ft 172 kts 172°
2026-05-06 19:40 60.40418 5.18097 2271 ft 164 kts 172°
2026-05-06 19:40 60.39320 5.18464 2042 ft 157 kts 172°
2026-05-06 19:41 60.38245 5.18823 1832 ft 156 kts 172°
2026-05-06 19:41 60.37166 5.19183 1617 ft 156 kts 172°
2026-05-06 19:41 60.36114 5.19533 1413 ft 155 kts 172°
2026-05-06 19:41 60.35040 5.19888 1163 ft 157 kts 172°
2026-05-06 19:42 60.33963 5.20246 948 ft 157 kts 171°
2026-05-06 19:42 60.32895 5.20610 762 ft 155 kts 171°
2026-05-06 19:42 60.31830 5.20981 566 ft 154 kts 171°
2026-05-06 19:42 60.30777 5.21344 306 ft 153 kts 171°
2026-05-06 19:43 60.29730 5.21691 161 ft 143 kts 170°
2026-05-06 19:43 60.28956 5.21955 170 ft 81 kts 171°
2026-05-06 19:43 60.28611 5.22066 171 ft 27 kts 171°
2026-05-06 19:43 60.28423 5.22127 169 ft 24 kts 171°
2026-05-06 19:44 60.28294 5.22201 166 ft 15 kts 124°
2026-05-06 19:44 60.28279 5.22342 162 ft 3 kts 105°
2026-05-06 19:44 60.28282 5.22394 163 ft 5 kts 82°
2026-05-06 19:44 60.28282 5.22402 163 ft 0 kts 82°
2026-05-06 19:45 60.28283 5.22413 163 ft 2 kts 81°
2026-05-06 19:46 60.28287 5.22446 164 ft 3 kts 76°
2026-05-06 19:46 60.28295 5.22506 165 ft 5 kts 76°
2026-05-06 19:46 60.28300 5.22545 166 ft 0 kts 76°
2026-05-06 19:46 60.28302 5.22566 166 ft 3 kts 76°
2026-05-06 19:47 60.28301 5.22619 166 ft 5 kts 103°
2026-05-06 19:47 60.28273 5.22681 165 ft 8 kts 166°
2026-05-06 19:47 60.28253 5.22672 164 ft 0 kts 209°